VJC321 VVTS-VVPQ

Flight info

Callsign VJC321
Flight time 0h 36m
Altitude 20000
Route BACHU5C BACHU W17 TUNPO TUNPO1D
Aircraft A21N/M-SDE3FGHIRWY/LB1

Departure

Time 2026-04-20 04:10
Airport Tan Son Nhat International Airport (VVTS)

Arrival

Time 2026-04-20 04:47
Airport Phú Quốc International Airport (VVPQ)
Time Latitude Longitude Altitude Speed Heading
2026-04-20 03:51 10.81440 106.65443 31 ft 0 kts 160°
2026-04-20 04:02 10.81439 106.65443 31 ft 0 kts 159°
2026-04-20 04:02 10.81431 106.65447 31 ft 1 kts 159°
2026-04-20 04:02 10.81429 106.65447 31 ft 0 kts 159°
2026-04-20 04:03 10.81418 106.65451 31 ft 3 kts 159°
2026-04-20 04:03 10.81396 106.65461 32 ft 3 kts 146°
2026-04-20 04:03 10.81385 106.65485 33 ft 5 kts 92°
2026-04-20 04:03 10.81401 106.65542 33 ft 9 kts 70°
2026-04-20 04:04 10.81427 106.65610 32 ft 10 kts 69°
2026-04-20 04:04 10.81456 106.65689 30 ft 13 kts 69°
2026-04-20 04:04 10.81487 106.65763 29 ft 10 kts 57°
2026-04-20 04:04 10.81554 106.65793 29 ft 10 kts
2026-04-20 04:05 10.81625 106.65800 31 ft 9 kts
2026-04-20 04:05 10.81689 106.65794 31 ft 9 kts 329°
2026-04-20 04:05 10.81748 106.65781 31 ft 9 kts 39°
2026-04-20 04:05 10.81776 106.65844 32 ft 9 kts 69°
2026-04-20 04:06 10.81802 106.65913 33 ft 11 kts 69°
2026-04-20 04:06 10.81835 106.66003 32 ft 15 kts 69°
2026-04-20 04:06 10.81879 106.66117 30 ft 19 kts 69°
2026-04-20 04:06 10.81930 106.66253 26 ft 21 kts 69°
2026-04-20 04:07 10.81980 106.66386 27 ft 19 kts 69°
2026-04-20 04:07 10.82029 106.66515 26 ft 19 kts 69°
2026-04-20 04:07 10.82078 106.66644 26 ft 18 kts 69°
2026-04-20 04:07 10.82120 106.66757 30 ft 15 kts 69°
2026-04-20 04:08 10.82155 106.66849 33 ft 13 kts 69°
2026-04-20 04:08 10.82187 106.66935 33 ft 12 kts 69°
2026-04-20 04:08 10.82226 106.67007 33 ft 10 kts 31°
2026-04-20 04:08 10.82297 106.66993 33 ft 11 kts 331°
2026-04-20 04:09 10.82351 106.66952 33 ft 6 kts 320°
2026-04-20 04:09 10.82358 106.66914 33 ft 4 kts 247°
2026-04-20 04:09 10.82352 106.66897 33 ft 4 kts 249°
2026-04-20 04:09 10.82289 106.66733 35 ft 57 kts 249°
2026-04-20 04:10 10.82061 106.66130 33 ft 122 kts 250°
2026-04-20 04:10 10.81699 106.65137 52 ft 172 kts 250°
2026-04-20 04:10 10.81276 106.63963 459 ft 180 kts 248°
2026-04-20 04:10 10.80805 106.62763 1064 ft 183 kts 246°
2026-04-20 04:11 10.80331 106.61565 1679 ft 185 kts 247°
2026-04-20 04:11 10.79856 106.60339 2059 ft 191 kts 248°
2026-04-20 04:11 10.79357 106.59038 2307 ft 204 kts 248°
2026-04-20 04:11 10.78829 106.57649 2561 ft 217 kts 248°
2026-04-20 04:12 10.78267 106.56169 2819 ft 231 kts 248°
2026-04-20 04:12 10.77666 106.54585 3014 ft 250 kts 248°
2026-04-20 04:12 10.77019 106.52881 3300 ft 267 kts 248°
2026-04-20 04:12 10.76331 106.51074 3704 ft 279 kts 249°
2026-04-20 04:13 10.75629 106.49229 4333 ft 282 kts 249°
2026-04-20 04:13 10.74930 106.47392 4979 ft 285 kts 249°
2026-04-20 04:13 10.74206 106.45486 5667 ft 287 kts 250°
2026-04-20 04:13 10.73488 106.43594 6348 ft 289 kts 250°
2026-04-20 04:14 10.72764 106.41683 6995 ft 293 kts 250°
2026-04-20 04:14 10.72031 106.39748 7628 ft 296 kts 250°
2026-04-20 04:14 10.71300 106.37822 8249 ft 299 kts 250°
2026-04-20 04:14 10.70540 106.35820 8865 ft 302 kts 250°
2026-04-20 04:15 10.69794 106.33858 9445 ft 305 kts 249°
2026-04-20 04:15 10.69018 106.31818 10033 ft 307 kts 249°
2026-04-20 04:15 10.68271 106.29756 10409 ft 318 kts 251°
2026-04-20 04:15 10.67542 106.27620 10690 ft 331 kts 252°
2026-04-20 04:16 10.66768 106.25329 10943 ft 345 kts 252°
2026-04-20 04:16 10.65974 106.22977 11193 ft 358 kts 252°
2026-04-20 04:16 10.65156 106.20561 11618 ft 365 kts 251°
2026-04-20 04:16 10.64330 106.18124 12173 ft 366 kts 251°
2026-04-20 04:17 10.63512 106.15712 12710 ft 368 kts 251°
2026-04-20 04:17 10.62664 106.13216 13233 ft 371 kts 251°
2026-04-20 04:17 10.61821 106.10736 13718 ft 374 kts 251°
2026-04-20 04:17 10.60971 106.08235 14194 ft 377 kts 251°
2026-04-20 04:18 10.60115 106.05718 14664 ft 379 kts 251°
2026-04-20 04:18 10.59264 106.03217 15111 ft 382 kts 251°
2026-04-20 04:18 10.58381 106.00623 15567 ft 385 kts 251°
2026-04-20 04:18 10.57468 105.98064 16018 ft 387 kts 250°
2026-04-20 04:19 10.56525 105.95499 16459 ft 389 kts 250°
2026-04-20 04:19 10.55586 105.92954 16857 ft 392 kts 250°
2026-04-20 04:19 10.54614 105.90317 17266 ft 394 kts 250°
2026-04-20 04:19 10.53654 105.87704 17669 ft 397 kts 250°
2026-04-20 04:20 10.52690 105.85077 18046 ft 399 kts 250°
2026-04-20 04:20 10.51734 105.82471 18409 ft 401 kts 250°
2026-04-20 04:20 10.50760 105.79811 18765 ft 404 kts 250°
2026-04-20 04:20 10.49772 105.77115 19097 ft 407 kts 250°
2026-04-20 04:21 10.48783 105.74415 19423 ft 409 kts 250°
2026-04-20 04:21 10.47788 105.71702 19752 ft 411 kts 250°
2026-04-20 04:21 10.46790 105.68977 19882 ft 413 kts 250°
2026-04-20 04:21 10.45791 105.66251 19886 ft 412 kts 250°
2026-04-20 04:22 10.44793 105.63528 19890 ft 412 kts 250°
2026-04-20 04:22 10.43794 105.60805 19894 ft 412 kts 250°
2026-04-20 04:22 10.42795 105.58081 19897 ft 412 kts 250°
2026-04-20 04:22 10.41797 105.55362 19897 ft 411 kts 250°
2026-04-20 04:23 10.40800 105.52647 19897 ft 411 kts 250°
2026-04-20 04:23 10.39800 105.49930 19893 ft 411 kts 250°
2026-04-20 04:23 10.38801 105.47214 19893 ft 411 kts 250°
2026-04-20 04:23 10.37801 105.44499 19893 ft 411 kts 250°
2026-04-20 04:24 10.36803 105.41785 19892 ft 411 kts 250°
2026-04-20 04:24 10.35804 105.39072 19895 ft 411 kts 250°
2026-04-20 04:24 10.34806 105.36357 19892 ft 411 kts 250°
2026-04-20 04:24 10.33806 105.33642 19889 ft 411 kts 250°
2026-04-20 04:25 10.32807 105.30927 19889 ft 411 kts 250°
2026-04-20 04:25 10.31806 105.28210 19888 ft 411 kts 250°
2026-04-20 04:25 10.30806 105.25494 19891 ft 412 kts 250°
2026-04-20 04:25 10.29805 105.22776 19890 ft 411 kts 250°
2026-04-20 04:26 10.28803 105.20058 19888 ft 412 kts 250°
2026-04-20 04:26 10.27801 105.17340 19886 ft 412 kts 250°
2026-04-20 04:26 10.26798 105.14621 19889 ft 411 kts 250°
2026-04-20 04:26 10.25796 105.11902 19885 ft 411 kts 250°
2026-04-20 04:27 10.24793 105.09184 19888 ft 411 kts 250°
2026-04-20 04:27 10.23791 105.06469 19886 ft 411 kts 250°
2026-04-20 04:27 10.22788 105.03753 19887 ft 411 kts 250°
2026-04-20 04:27 10.21784 105.01032 19882 ft 411 kts 250°
2026-04-20 04:28 10.20779 104.98313 19884 ft 412 kts 250°
2026-04-20 04:28 10.19776 104.95596 19884 ft 412 kts 250°
2026-04-20 04:28 10.18772 104.92879 19888 ft 412 kts 250°
2026-04-20 04:28 10.17768 104.90163 19886 ft 412 kts 250°
2026-04-20 04:29 10.16763 104.87445 19719 ft 411 kts 250°
2026-04-20 04:29 10.15763 104.84741 19483 ft 409 kts 250°
2026-04-20 04:29 10.14768 104.82050 19249 ft 407 kts 250°
2026-04-20 04:29 10.13776 104.79372 19018 ft 405 kts 250°
2026-04-20 04:30 10.12790 104.76705 18792 ft 403 kts 250°
2026-04-20 04:30 10.11808 104.74052 18564 ft 401 kts 250°
2026-04-20 04:30 10.10831 104.71409 18331 ft 400 kts 250°
2026-04-20 04:30 10.09857 104.68779 18092 ft 398 kts 250°
2026-04-20 04:31 10.08888 104.66162 17843 ft 396 kts 250°
2026-04-20 04:31 10.07923 104.63558 17540 ft 394 kts 249°
2026-04-20 04:31 10.06986 104.60960 17157 ft 392 kts 251°
2026-04-20 04:31 10.06221 104.58325 16715 ft 389 kts 256°
2026-04-20 04:32 10.05659 104.55656 16268 ft 387 kts 260°
2026-04-20 04:32 10.05215 104.52979 15796 ft 385 kts 261°
2026-04-20 04:32 10.04791 104.50309 15322 ft 384 kts 261°
2026-04-20 04:32 10.04368 104.47649 14849 ft 382 kts 261°
2026-04-20 04:33 10.03943 104.44998 14331 ft 382 kts 261°
2026-04-20 04:33 10.03516 104.42348 13817 ft 381 kts 261°
2026-04-20 04:33 10.03087 104.39709 13327 ft 380 kts 261°
2026-04-20 04:33 10.02658 104.37076 12842 ft 378 kts 261°
2026-04-20 04:34 10.02253 104.34452 12358 ft 376 kts 263°
2026-04-20 04:34 10.02086 104.31821 11879 ft 373 kts 270°
2026-04-20 04:34 10.02209 104.29210 11426 ft 370 kts 276°
2026-04-20 04:34 10.02460 104.26627 10953 ft 367 kts 277°
2026-04-20 04:35 10.02730 104.24071 10597 ft 360 kts 277°
2026-04-20 04:35 10.02991 104.21590 10440 ft 348 kts 277°
2026-04-20 04:35 10.03237 104.19199 10296 ft 335 kts 276°
2026-04-20 04:35 10.03470 104.16893 10150 ft 323 kts 276°
2026-04-20 04:36 10.03907 104.12511 9739 ft 307 kts 276°
2026-04-20 04:36 10.04120 104.10366 9345 ft 305 kts 276°
2026-04-20 04:36 10.04331 104.08240 8974 ft 301 kts 276°
2026-04-20 04:37 10.04537 104.06157 8639 ft 294 kts 276°
2026-04-20 04:37 10.04738 104.04124 8304 ft 287 kts 276°
2026-04-20 04:37 10.04935 104.02138 7968 ft 280 kts 276°
2026-04-20 04:37 10.05126 104.00197 7646 ft 274 kts 276°
2026-04-20 04:38 10.05314 103.98298 7330 ft 267 kts 276°
2026-04-20 04:38 10.05497 103.96449 7058 ft 260 kts 276°
2026-04-20 04:38 10.05673 103.94652 6779 ft 253 kts 276°
2026-04-20 04:38 10.05845 103.92908 6508 ft 245 kts 276°
2026-04-20 04:39 10.06010 103.91215 6244 ft 237 kts 276°
2026-04-20 04:39 10.06172 103.89576 5988 ft 230 kts 276°
2026-04-20 04:39 10.06327 103.88000 5769 ft 221 kts 277°
2026-04-20 04:39 10.06479 103.86471 5439 ft 215 kts 276°
2026-04-20 04:40 10.06623 103.85000 5209 ft 204 kts 276°
2026-04-20 04:40 10.06762 103.83581 5135 ft 202 kts 276°
2026-04-20 04:40 10.06917 103.82167 5058 ft 202 kts 281°
2026-04-20 04:40 10.07517 103.80908 4975 ft 199 kts 313°
2026-04-20 04:41 10.08659 103.80132 4853 ft 199 kts 342°
2026-04-20 04:41 10.10012 103.79996 4522 ft 195 kts
2026-04-20 04:41 10.11363 103.80145 4237 ft 194 kts
2026-04-20 04:41 10.12711 103.80314 3971 ft 194 kts
2026-04-20 04:42 10.14062 103.80474 3650 ft 195 kts
2026-04-20 04:42 10.15411 103.80621 3327 ft 194 kts
2026-04-20 04:42 10.16758 103.80766 3016 ft 194 kts
2026-04-20 04:42 10.17981 103.81267 2639 ft 190 kts 44°
2026-04-20 04:43 10.18610 103.82384 2439 ft 183 kts 82°
2026-04-20 04:43 10.18618 103.83673 2471 ft 184 kts 96°
2026-04-20 04:43 10.18454 103.84965 2392 ft 185 kts 99°
2026-04-20 04:43 10.18283 103.86249 2169 ft 181 kts 98°
2026-04-20 04:44 10.18147 103.87461 1956 ft 164 kts 97°
2026-04-20 04:44 10.18038 103.88557 1735 ft 148 kts 97°
2026-04-20 04:44 10.17941 103.89565 1542 ft 141 kts 97°
2026-04-20 04:44 10.17845 103.90558 1379 ft 141 kts 96°
2026-04-20 04:45 10.17748 103.91550 1214 ft 141 kts 96°
2026-04-20 04:45 10.17651 103.92538 1041 ft 140 kts 96°
2026-04-20 04:45 10.17555 103.93520 863 ft 140 kts 97°
2026-04-20 04:45 10.17458 103.94501 669 ft 139 kts 97°
2026-04-20 04:46 10.17354 103.95477 498 ft 139 kts 98°
2026-04-20 04:46 10.17239 103.96451 343 ft 139 kts 97°
2026-04-20 04:46 10.17147 103.97423 157 ft 138 kts 96°
2026-04-20 04:46 10.17072 103.98387 34 ft 132 kts 96°
2026-04-20 04:47 10.16995 103.99173 33 ft 88 kts 93°
2026-04-20 04:47 10.16953 103.99622 33 ft 45 kts 96°
2026-04-20 04:47 10.16919 103.99876 33 ft 27 kts 110°
2026-04-20 04:47 10.16863 103.99992 33 ft 8 kts 124°
2026-04-20 04:48 10.16827 104.00046 33 ft 9 kts 124°
2026-04-20 04:48 10.16776 104.00086 33 ft 9 kts 177°
2026-04-20 04:48 10.16740 104.00037 33 ft 10 kts 269°
2026-04-20 04:48 10.16746 103.99961 33 ft 11 kts 275°
2026-04-20 04:49 10.16748 103.99886 33 ft 10 kts 251°
2026-04-20 04:49 10.16687 103.99857 33 ft 10 kts 178°
2026-04-20 04:49 10.16625 103.99854 33 ft 7 kts 186°
2026-04-20 04:49 10.16569 103.99848 33 ft 8 kts 186°
2026-04-20 04:50 10.16513 103.99858 33 ft 7 kts 165°
2026-04-20 04:50 10.16466 103.99857 33 ft 4 kts 186°
2026-04-20 04:50 10.16449 103.99855 33 ft 0 kts 186°
2026-04-20 04:50 10.16442 103.99854 33 ft 1 kts 186°
2026-04-20 04:51 10.16430 103.99854 33 ft 1 kts 186°
2026-04-20 04:51 10.16419 103.99853 33 ft 1 kts 185°
2026-04-20 04:51 10.16415 103.99852 33 ft 1 kts 185°
2026-04-20 04:51 10.16410 103.99851 33 ft 0 kts 185°